UAL978A KIAD-EGPH

Flight info

Callsign UAL978A
Flight time 6h 29m
Altitude 35000
Route WOOLY2 SWANN DCT BROSS Q419 RBV Q430 ACK DCT TUSKY/N0448F370 N501B ALLRY/M079F370 DCT 5150N DCT 5340N DCT 54N030W 55N020W DCT ETARI/N0452F370 DCT MOGLO DCT KUGUR DCT MAC/N0382F250 N562 TRN DCT TLA
Aircraft A343/H-SDE2E3FGHIJ3J5M1P2RWXYZ/LB1D1

Departure

Time 2026-05-06 14:43
Airport Washington Dulles International Airport (KIAD)

Arrival

Time 2026-05-06 21:12
Airport Edinburgh Airport (EGPH)
Time Latitude Longitude Altitude Speed Heading
2026-05-06 13:44 38.94818 -77.44569 300 ft 0 kts 15°
2026-05-06 14:32 38.94805 -77.44573 301 ft 4 kts 12°
2026-05-06 14:33 38.94779 -77.44579 299 ft 4 kts
2026-05-06 14:33 38.94752 -77.44579 299 ft 4 kts 348°
2026-05-06 14:33 38.94730 -77.44567 299 ft 4 kts 298°
2026-05-06 14:33 38.94726 -77.44557 299 ft 0 kts 270°
2026-05-06 14:36 38.94727 -77.44563 301 ft 3 kts 270°
2026-05-06 14:36 38.94727 -77.44626 300 ft 11 kts 270°
2026-05-06 14:36 38.94728 -77.44748 300 ft 17 kts 270°
2026-05-06 14:37 38.94729 -77.44908 296 ft 17 kts 270°
2026-05-06 14:37 38.94729 -77.45043 296 ft 13 kts 270°
2026-05-06 14:37 38.94733 -77.45167 296 ft 17 kts 271°
2026-05-06 14:37 38.94734 -77.45343 296 ft 20 kts 269°
2026-05-06 14:38 38.94734 -77.45501 296 ft 16 kts 270°
2026-05-06 14:38 38.94709 -77.45596 299 ft 8 kts 202°
2026-05-06 14:38 38.94645 -77.45607 299 ft 13 kts 184°
2026-05-06 14:38 38.94530 -77.45610 299 ft 20 kts 179°
2026-05-06 14:39 38.94371 -77.45612 299 ft 25 kts 181°
2026-05-06 14:39 38.94209 -77.45615 298 ft 20 kts 180°
2026-05-06 14:39 38.94087 -77.45615 299 ft 15 kts 180°
2026-05-06 14:39 38.93999 -77.45615 299 ft 11 kts 180°
2026-05-06 14:40 38.93920 -77.45617 298 ft 13 kts 181°
2026-05-06 14:40 38.93819 -77.45618 298 ft 16 kts 180°
2026-05-06 14:40 38.93706 -77.45608 299 ft 16 kts 155°
2026-05-06 14:40 38.93642 -77.45521 301 ft 12 kts 134°
2026-05-06 14:41 38.93577 -77.45498 298 ft 9 kts 196°
2026-05-06 14:41 38.93499 -77.45540 300 ft 15 kts 202°
2026-05-06 14:41 38.93412 -77.45586 298 ft 13 kts 202°
2026-05-06 14:41 38.93377 -77.45642 301 ft 2 kts 289°
2026-05-06 14:42 38.93379 -77.45648 300 ft 6 kts 290°
2026-05-06 14:42 38.93450 -77.45893 301 ft 61 kts 290°
2026-05-06 14:42 38.93676 -77.46671 307 ft 122 kts 291°
2026-05-06 14:42 38.94033 -77.47889 477 ft 156 kts 286°
2026-05-06 14:43 38.94494 -77.49168 1026 ft 171 kts 301°
2026-05-06 14:43 38.95279 -77.50402 1635 ft 183 kts 299°
2026-05-06 14:43 38.96115 -77.51656 2380 ft 184 kts 298°
2026-05-06 14:43 38.96934 -77.52908 2855 ft 181 kts 297°
2026-05-06 14:44 38.97685 -77.54198 3120 ft 182 kts 295°
2026-05-06 14:44 38.98460 -77.55543 3526 ft 194 kts 297°
2026-05-06 14:44 38.99330 -77.56990 3832 ft 218 kts 299°
2026-05-06 14:45 39.01346 -77.60246 5152 ft 237 kts 302°
2026-05-06 14:45 39.02393 -77.61916 5938 ft 242 kts 303°
2026-05-06 14:45 39.03474 -77.63617 6673 ft 249 kts 303°
2026-05-06 14:45 39.04824 -77.65101 7374 ft 264 kts 322°
2026-05-06 14:46 39.06580 -77.65986 8117 ft 283 kts 344°
2026-05-06 14:46 39.08599 -77.65794 8885 ft 303 kts 11°
2026-05-06 14:46 39.10491 -77.64479 9621 ft 319 kts 37°
2026-05-06 14:46 39.11893 -77.62261 10233 ft 331 kts 59°
2026-05-06 14:47 39.12926 -77.59523 10568 ft 349 kts 65°
2026-05-06 14:47 39.13931 -77.56587 10886 ft 366 kts 65°
2026-05-06 14:47 39.15043 -77.53559 11158 ft 383 kts 64°
2026-05-06 14:47 39.16210 -77.50403 11458 ft 397 kts 64°
2026-05-06 14:48 39.17406 -77.47145 11912 ft 406 kts 64°
2026-05-06 14:48 39.18616 -77.43835 12466 ft 411 kts 64°
2026-05-06 14:48 39.19839 -77.40477 13043 ft 416 kts 64°
2026-05-06 14:48 39.21072 -77.37081 13639 ft 421 kts 64°
2026-05-06 14:49 39.22314 -77.33653 14219 ft 424 kts 64°
2026-05-06 14:49 39.23568 -77.30191 14770 ft 428 kts 64°
2026-05-06 14:49 39.24862 -77.26706 15301 ft 432 kts 62°
2026-05-06 14:49 39.26225 -77.23232 15849 ft 436 kts 62°
2026-05-06 14:50 39.27605 -77.19730 16442 ft 438 kts 62°
2026-05-06 14:50 39.28984 -77.16212 17001 ft 442 kts 62°
2026-05-06 14:50 39.30376 -77.12648 17520 ft 446 kts 62°
2026-05-06 14:50 39.31737 -77.09024 18009 ft 452 kts 66°
2026-05-06 14:51 39.32684 -77.05120 18385 ft 459 kts 81°
2026-05-06 14:51 39.32899 -77.01019 18810 ft 460 kts 96°
2026-05-06 14:51 39.32372 -76.96959 19238 ft 458 kts 109°
2026-05-06 14:51 39.31495 -76.92992 19696 ft 460 kts 111°
2026-05-06 14:52 39.30565 -76.89022 20137 ft 464 kts 111°
2026-05-06 14:52 39.29628 -76.85020 20565 ft 467 kts 110°
2026-05-06 14:52 39.28693 -76.80996 21072 ft 469 kts 110°
2026-05-06 14:52 39.27754 -76.76945 21483 ft 473 kts 110°
2026-05-06 14:53 39.26808 -76.72859 21860 ft 477 kts 110°
2026-05-06 14:53 39.25869 -76.68805 22398 ft 477 kts 110°
2026-05-06 14:53 39.24916 -76.64690 22845 ft 480 kts 110°
2026-05-06 14:53 39.23955 -76.60548 23210 ft 484 kts 110°
2026-05-06 14:54 39.22985 -76.56371 23573 ft 488 kts 110°
2026-05-06 14:54 39.22004 -76.52157 23873 ft 492 kts 110°
2026-05-06 14:54 39.21014 -76.47912 24159 ft 496 kts 110°
2026-05-06 14:54 39.20013 -76.43624 24453 ft 501 kts 110°
2026-05-06 14:55 39.19004 -76.39313 24749 ft 504 kts 110°
2026-05-06 14:55 39.17989 -76.34982 25059 ft 507 kts 110°
2026-05-06 14:55 39.16977 -76.30674 25348 ft 510 kts 110°
2026-05-06 14:55 39.16027 -76.26260 25624 ft 515 kts 104°
2026-05-06 14:56 39.15575 -76.21660 25920 ft 520 kts 91°
2026-05-06 14:56 39.15763 -76.16997 26212 ft 523 kts 83°
2026-05-06 14:56 39.16200 -76.12340 26509 ft 524 kts 81°
2026-05-06 14:56 39.16739 -76.07712 26989 ft 522 kts 80°
2026-05-06 14:57 39.17314 -76.03083 27276 ft 525 kts 79°
2026-05-06 14:57 39.17897 -75.98420 27511 ft 528 kts 79°
2026-05-06 14:57 39.18749 -75.93801 27688 ft 531 kts 69°
2026-05-06 14:57 39.20166 -75.89412 27930 ft 529 kts 58°
2026-05-06 14:58 39.22158 -75.85456 28220 ft 523 kts 45°
2026-05-06 14:58 39.24633 -75.82068 28502 ft 517 kts 37°
2026-05-06 14:58 39.27292 -75.78951 28787 ft 516 kts 34°
2026-05-06 14:58 39.29984 -75.75980 29124 ft 515 kts 33°
2026-05-06 14:59 39.32731 -75.73024 29473 ft 514 kts 32°
2026-05-06 14:59 39.35495 -75.70066 29725 ft 517 kts 32°
2026-05-06 14:59 39.38269 -75.67084 29956 ft 520 kts 32°
2026-05-06 14:59 39.41050 -75.64072 30146 ft 523 kts 33°
2026-05-06 15:00 39.43837 -75.61031 30355 ft 525 kts 33°
2026-05-06 15:00 39.46633 -75.57968 30597 ft 526 kts 33°
2026-05-06 15:00 39.49411 -75.54906 30938 ft 524 kts 32°
2026-05-06 15:00 39.52177 -75.51844 31269 ft 523 kts 32°
2026-05-06 15:01 39.54939 -75.48785 31572 ft 522 kts 32°
2026-05-06 15:01 39.57692 -75.45734 31858 ft 522 kts 32°
2026-05-06 15:01 39.60452 -75.42678 32111 ft 522 kts 32°
2026-05-06 15:01 39.63207 -75.39631 32481 ft 518 kts 32°
2026-05-06 15:02 39.65939 -75.36600 32868 ft 516 kts 32°
2026-05-06 15:02 39.68663 -75.33574 33121 ft 515 kts 32°
2026-05-06 15:02 39.71387 -75.30545 33360 ft 515 kts 32°
2026-05-06 15:02 39.74107 -75.27517 33662 ft 515 kts 31°
2026-05-06 15:03 39.76788 -75.24530 33938 ft 514 kts 31°
2026-05-06 15:03 39.79399 -75.21314 34143 ft 522 kts 38°
2026-05-06 15:03 39.81874 -75.17831 34357 ft 524 kts 39°
2026-05-06 15:03 39.84308 -75.14296 34553 ft 524 kts 39°
2026-05-06 15:04 39.86717 -75.10729 34742 ft 525 kts 40°
2026-05-06 15:04 39.89119 -75.07143 34885 ft 527 kts 40°
2026-05-06 15:04 39.91526 -75.03539 34904 ft 526 kts 40°
2026-05-06 15:05 39.96276 -74.96327 34913 ft 527 kts 44°
2026-05-06 15:05 40.00495 -74.88502 34915 ft 532 kts 47°
2026-05-06 15:06 40.04614 -74.80453 34915 ft 534 kts 48°
2026-05-06 15:06 40.08708 -74.72354 34893 ft 534 kts 48°
2026-05-06 15:07 40.12801 -74.64258 34899 ft 534 kts 49°
2026-05-06 15:07 40.16896 -74.56156 34892 ft 533 kts 49°
2026-05-06 15:08 40.20594 -74.47688 34895 ft 545 kts 63°
2026-05-06 15:08 40.23274 -74.38357 34904 ft 548 kts 65°
2026-05-06 15:09 40.25724 -74.28973 34912 ft 547 kts 67°
2026-05-06 15:09 40.28150 -74.19554 34910 ft 547 kts 67°
2026-05-06 15:10 40.30601 -74.10105 34912 ft 548 kts 67°
2026-05-06 15:10 40.33055 -74.00661 34908 ft 548 kts 67°
2026-05-06 15:11 40.35110 -73.92741 34916 ft 547 kts 67°
2026-05-06 15:11 40.37541 -73.83353 34914 ft 547 kts 67°
2026-05-06 15:12 40.39980 -73.73898 34919 ft 547 kts 67°
2026-05-06 15:12 40.42413 -73.64433 34918 ft 548 kts 68°
2026-05-06 15:13 40.44838 -73.54953 34924 ft 547 kts 68°
2026-05-06 15:13 40.47253 -73.45475 34928 ft 547 kts 68°
2026-05-06 15:14 40.49655 -73.35990 34928 ft 547 kts 68°
2026-05-06 15:14 40.52055 -73.26476 34927 ft 547 kts 67°
2026-05-06 15:15 40.54435 -73.17005 34933 ft 544 kts 68°
2026-05-06 15:15 40.56790 -73.07606 34951 ft 545 kts 68°
2026-05-06 15:16 40.59154 -72.98133 34949 ft 545 kts 68°
2026-05-06 15:16 40.61512 -72.88647 34959 ft 543 kts 68°
2026-05-06 15:17 40.63847 -72.79210 34973 ft 542 kts 68°
2026-05-06 15:17 40.66174 -72.69771 34968 ft 542 kts 68°
2026-05-06 15:18 40.68496 -72.60319 34976 ft 543 kts 69°
2026-05-06 15:18 40.70815 -72.50856 34978 ft 541 kts 69°
2026-05-06 15:19 40.73110 -72.41421 34980 ft 540 kts 69°
2026-05-06 15:19 40.75399 -72.31969 34979 ft 540 kts 69°
2026-05-06 15:20 40.77665 -72.22584 34977 ft 540 kts 68°
2026-05-06 15:20 40.80011 -72.13193 34993 ft 537 kts 67°
2026-05-06 15:21 40.82497 -72.03900 34974 ft 537 kts 66°
2026-05-06 15:21 40.84982 -71.94602 34976 ft 537 kts 67°
2026-05-06 15:22 40.87432 -71.85287 34972 ft 536 kts 67°
2026-05-06 15:22 40.89855 -71.75988 34974 ft 535 kts 67°
2026-05-06 15:23 40.92270 -71.66683 34978 ft 534 kts 67°
2026-05-06 15:23 40.94691 -71.57386 34983 ft 535 kts 67°
2026-05-06 15:24 40.97142 -71.48111 34979 ft 532 kts 67°
2026-05-06 15:24 40.99579 -71.38876 34982 ft 530 kts 67°
2026-05-06 15:25 41.01896 -71.29665 34982 ft 532 kts 70°
2026-05-06 15:25 41.03876 -71.20214 34987 ft 533 kts 72°
2026-05-06 15:26 41.05807 -71.10730 34994 ft 533 kts 72°
2026-05-06 15:26 41.07785 -71.01266 34999 ft 532 kts 71°
2026-05-06 15:27 41.09779 -70.91816 34997 ft 532 kts 71°
2026-05-06 15:27 41.11771 -70.82363 35003 ft 531 kts 71°
2026-05-06 15:28 41.13737 -70.72999 35002 ft 530 kts 71°
2026-05-06 15:28 41.15705 -70.63562 35002 ft 530 kts 71°
2026-05-06 15:29 41.17666 -70.54118 35004 ft 530 kts 71°
2026-05-06 15:29 41.19612 -70.44702 35004 ft 527 kts 71°
2026-05-06 15:30 41.21542 -70.35327 35008 ft 526 kts 71°
2026-05-06 15:30 41.23467 -70.25940 35032 ft 526 kts 71°
2026-05-06 15:31 41.25380 -70.16565 35036 ft 526 kts 72°
2026-05-06 15:31 41.27419 -70.07354 35039 ft 519 kts 64°
2026-05-06 15:32 41.31091 -69.99297 35037 ft 504 kts 42°
2026-05-06 15:32 41.33492 -69.95927 35034 ft 501 kts 39°
2026-05-06 15:32 41.38509 -69.89501 35034 ft 500 kts 37°
2026-05-06 15:33 41.43601 -69.83176 35046 ft 499 kts 37°
2026-05-06 15:33 41.48656 -69.76837 35025 ft 499 kts 37°
2026-05-06 15:34 41.53701 -69.70447 35022 ft 500 kts 38°
2026-05-06 15:34 41.58733 -69.64040 35029 ft 500 kts 38°
2026-05-06 15:35 41.63776 -69.57604 35029 ft 502 kts 38°
2026-05-06 15:35 41.68825 -69.51148 35028 ft 502 kts 38°
2026-05-06 15:36 41.73820 -69.44743 35020 ft 500 kts 38°
2026-05-06 15:36 41.78835 -69.38301 35022 ft 500 kts 38°
2026-05-06 15:37 41.83861 -69.31833 35027 ft 501 kts 38°
2026-05-06 15:37 41.88882 -69.25356 35025 ft 501 kts 38°
2026-05-06 15:38 41.93902 -69.18863 35014 ft 501 kts 39°
2026-05-06 15:38 41.98923 -69.12354 35020 ft 501 kts 39°
2026-05-06 15:39 42.03931 -69.05846 35018 ft 500 kts 39°
2026-05-06 15:39 42.08934 -68.99331 35028 ft 500 kts 39°
2026-05-06 15:40 42.13909 -68.92839 35024 ft 501 kts 39°
2026-05-06 15:40 42.18914 -68.86291 35014 ft 501 kts 39°
2026-05-06 15:41 42.23909 -68.79741 35024 ft 501 kts 39°
2026-05-06 15:41 42.28901 -68.73179 35014 ft 501 kts 39°
2026-05-06 15:42 42.33897 -68.66596 35024 ft 501 kts 39°
2026-05-06 15:42 42.38888 -68.60005 35037 ft 501 kts 40°
2026-05-06 15:43 42.43887 -68.53390 35022 ft 503 kts 40°
2026-05-06 15:43 42.48853 -68.46800 35014 ft 503 kts 40°
2026-05-06 15:44 42.53845 -68.40159 35042 ft 502 kts 40°
2026-05-06 15:44 42.58836 -68.33507 35016 ft 504 kts 40°
2026-05-06 15:45 42.63840 -68.26822 35026 ft 504 kts 40°
2026-05-06 15:45 42.68833 -68.20132 35012 ft 504 kts 40°
2026-05-06 15:46 42.73821 -68.13436 35016 ft 504 kts 40°
2026-05-06 15:46 42.78807 -68.06725 35014 ft 504 kts 41°
2026-05-06 15:47 42.83798 -67.99991 35026 ft 504 kts 41°
2026-05-06 15:47 42.88746 -67.93300 35014 ft 504 kts 41°
2026-05-06 15:48 42.93729 -67.86545 35009 ft 504 kts 41°
2026-05-06 15:48 42.98701 -67.79789 35032 ft 504 kts 41°
2026-05-06 15:49 43.03674 -67.73015 35009 ft 504 kts 41°
2026-05-06 15:49 43.08629 -67.66249 35005 ft 504 kts 41°
2026-05-06 15:50 43.13588 -67.59461 35014 ft 504 kts 41°
2026-05-06 15:50 43.18532 -67.52677 35013 ft 503 kts 41°
2026-05-06 15:51 43.23433 -67.45936 35012 ft 502 kts 41°
2026-05-06 15:51 43.28364 -67.39137 35021 ft 502 kts 41°
2026-05-06 15:52 43.33290 -67.32329 35019 ft 503 kts 41°
2026-05-06 15:52 43.38216 -67.25505 35020 ft 503 kts 41°
2026-05-06 15:53 43.43133 -67.18675 35020 ft 503 kts 41°
2026-05-06 15:53 43.48048 -67.11831 35016 ft 502 kts 41°
2026-05-06 15:54 43.52955 -67.04982 35014 ft 502 kts 41°
2026-05-06 15:54 43.55400 -67.01553 35117 ft 502 kts 42°
2026-05-06 15:54 43.57717 -66.97919 35326 ft 504 kts 46°
2026-05-06 15:55 43.59974 -66.94221 35533 ft 504 kts 47°
2026-05-06 15:55 43.62187 -66.90535 35716 ft 505 kts 47°
2026-05-06 15:55 43.64414 -66.86791 35883 ft 505 kts 47°
2026-05-06 15:55 43.66638 -66.83033 36056 ft 505 kts 47°
2026-05-06 15:56 43.68859 -66.79276 36216 ft 505 kts 47°
2026-05-06 15:56 43.71081 -66.75515 36409 ft 505 kts 47°
2026-05-06 15:56 43.73308 -66.71746 36560 ft 505 kts 47°
2026-05-06 15:56 43.75529 -66.67984 36723 ft 506 kts 47°
2026-05-06 15:57 43.77748 -66.64223 36967 ft 504 kts 47°
2026-05-06 15:57 43.79969 -66.60456 37020 ft 506 kts 47°
2026-05-06 15:57 43.84413 -66.52903 37030 ft 504 kts 47°
2026-05-06 15:58 43.88840 -66.45360 37051 ft 504 kts 47°
2026-05-06 15:58 43.93263 -66.37802 37041 ft 504 kts 47°
2026-05-06 15:59 43.97653 -66.30283 37058 ft 504 kts 47°
2026-05-06 15:59 44.02067 -66.22702 37054 ft 504 kts 47°
2026-05-06 16:00 44.06479 -66.15103 37053 ft 504 kts 47°
2026-05-06 16:00 44.10884 -66.07497 37047 ft 504 kts 47°
2026-05-06 16:01 44.15283 -65.99882 37046 ft 504 kts 47°
2026-05-06 16:01 44.18932 -65.93548 37047 ft 504 kts 47°
2026-05-06 16:02 44.23320 -65.85916 37037 ft 504 kts 47°
2026-05-06 16:02 44.28392 -65.77066 37043 ft 501 kts 47°
2026-05-06 16:03 44.32010 -65.70738 37049 ft 501 kts 47°
2026-05-06 16:03 44.36353 -65.63121 37048 ft 500 kts 48°
2026-05-06 16:04 44.40684 -65.55508 37043 ft 500 kts 48°
2026-05-06 16:04 44.45018 -65.47870 37039 ft 500 kts 48°
2026-05-06 16:05 44.49345 -65.40224 37041 ft 501 kts 48°
2026-05-06 16:05 44.53671 -65.32557 37051 ft 501 kts 48°
2026-05-06 16:06 44.57991 -65.24881 37048 ft 502 kts 48°
2026-05-06 16:06 44.62279 -65.17241 37048 ft 502 kts 48°
2026-05-06 16:07 44.66593 -65.09535 37039 ft 502 kts 48°
2026-05-06 16:07 44.70904 -65.01813 37026 ft 502 kts 49°
2026-05-06 16:08 44.75207 -64.94081 37028 ft 499 kts 49°
2026-05-06 16:08 44.79476 -64.86394 37019 ft 499 kts 49°
2026-05-06 16:09 44.83743 -64.78689 37016 ft 499 kts 49°
2026-05-06 16:09 44.87980 -64.71019 37016 ft 499 kts 49°
2026-05-06 16:10 44.92267 -64.63235 37022 ft 499 kts 49°
2026-05-06 16:10 44.96495 -64.55539 37020 ft 500 kts 49°
2026-05-06 16:11 45.00753 -64.47767 37014 ft 500 kts 49°
2026-05-06 16:11 45.05002 -64.39989 37008 ft 500 kts 49°
2026-05-06 16:12 45.09251 -64.32191 37001 ft 500 kts 50°
2026-05-06 16:12 45.13497 -64.24377 37019 ft 500 kts 50°
2026-05-06 16:13 45.17735 -64.16555 37016 ft 500 kts 50°
2026-05-06 16:13 45.21937 -64.08777 37010 ft 499 kts 50°
2026-05-06 16:14 45.26148 -64.00963 37019 ft 497 kts 50°
2026-05-06 16:14 45.30345 -63.93153 37027 ft 497 kts 50°
2026-05-06 16:15 45.34536 -63.85335 37028 ft 497 kts 50°
2026-05-06 16:15 45.38720 -63.77508 37026 ft 498 kts 50°
2026-05-06 16:16 45.42904 -63.69658 37022 ft 498 kts 50°
2026-05-06 16:16 45.47082 -63.61796 37019 ft 498 kts 50°
2026-05-06 16:17 45.51255 -63.53923 37037 ft 498 kts 50°
2026-05-06 16:17 45.55400 -63.46082 37026 ft 498 kts 50°
2026-05-06 16:18 45.59571 -63.38170 37020 ft 498 kts 51°
2026-05-06 16:18 45.63734 -63.30252 37016 ft 498 kts 51°
2026-05-06 16:19 45.67890 -63.22321 37010 ft 498 kts 51°
2026-05-06 16:19 45.72040 -63.14380 37014 ft 497 kts 50°
2026-05-06 16:20 45.76172 -63.06453 37016 ft 496 kts 50°
2026-05-06 16:20 45.80274 -62.98562 37042 ft 497 kts 50°
2026-05-06 16:21 45.84401 -62.90601 37009 ft 498 kts 51°
2026-05-06 16:21 45.88530 -62.82613 37009 ft 498 kts 51°
2026-05-06 16:22 45.92656 -62.74607 37007 ft 498 kts 51°
2026-05-06 16:22 45.96774 -62.66595 37008 ft 498 kts 51°
2026-05-06 16:23 46.00889 -62.58566 37007 ft 499 kts 51°
2026-05-06 16:23 46.05001 -62.50517 37007 ft 499 kts 51°
2026-05-06 16:24 46.09084 -62.42504 37029 ft 499 kts 51°
2026-05-06 16:24 46.13187 -62.34430 37015 ft 500 kts 51°
2026-05-06 16:25 46.17289 -62.26333 36999 ft 500 kts 51°
2026-05-06 16:25 46.21388 -62.18218 37018 ft 501 kts 51°
2026-05-06 16:26 46.25491 -62.10073 37021 ft 501 kts 51°
2026-05-06 16:26 46.29591 -62.01911 37025 ft 502 kts 51°
2026-05-06 16:27 46.33691 -61.93724 37026 ft 502 kts 52°
2026-05-06 16:27 46.37784 -61.85527 37026 ft 502 kts 52°
2026-05-06 16:28 46.41869 -61.77321 37024 ft 503 kts 52°
2026-05-06 16:28 46.45959 -61.69083 37021 ft 503 kts 52°
2026-05-06 16:29 46.50041 -61.60835 37021 ft 503 kts 52°
2026-05-06 16:29 46.54116 -61.52576 37023 ft 503 kts 52°
2026-05-06 16:30 46.57503 -61.45695 37008 ft 504 kts 52°
2026-05-06 16:30 46.62235 -61.36051 37001 ft 504 kts 52°
2026-05-06 16:31 46.66299 -61.27741 36980 ft 504 kts 52°
2026-05-06 16:31 46.70351 -61.19430 37007 ft 503 kts 53°
2026-05-06 16:32 46.74398 -61.11108 37008 ft 504 kts 53°
2026-05-06 16:32 46.78445 -61.02761 37006 ft 504 kts 53°
2026-05-06 16:33 46.82483 -60.94405 37011 ft 504 kts 53°
2026-05-06 16:34 46.88538 -60.81829 37012 ft 505 kts 53°
2026-05-06 16:34 46.92540 -60.73485 37015 ft 505 kts 53°
2026-05-06 16:35 46.96565 -60.65068 37014 ft 505 kts 53°
2026-05-06 16:35 47.00591 -60.56622 37023 ft 507 kts 53°
2026-05-06 16:36 47.04628 -60.48129 37025 ft 508 kts 53°
2026-05-06 16:36 47.08664 -60.39613 37025 ft 509 kts 53°
2026-05-06 16:37 47.12695 -60.31079 37031 ft 509 kts 53°
2026-05-06 16:37 47.16715 -60.22543 37032 ft 507 kts 53°
2026-05-06 16:38 47.20717 -60.14016 37031 ft 506 kts 53°
2026-05-06 16:38 47.24708 -60.05488 37044 ft 506 kts 53°
2026-05-06 16:39 47.28691 -59.96952 37044 ft 505 kts 52°
2026-05-06 16:39 47.32623 -59.88497 37044 ft 502 kts 53°
2026-05-06 16:40 47.36564 -59.79998 37049 ft 502 kts 53°
2026-05-06 16:40 47.40500 -59.71484 37056 ft 502 kts 53°
2026-05-06 16:41 47.44428 -59.62962 37064 ft 502 kts 53°
2026-05-06 16:41 47.48355 -59.54416 37070 ft 502 kts 53°
2026-05-06 16:42 47.52275 -59.45855 37074 ft 502 kts 53°
2026-05-06 16:42 47.56189 -59.37283 37075 ft 502 kts 53°
2026-05-06 16:43 47.60071 -59.28753 37082 ft 502 kts 53°
2026-05-06 16:43 47.63968 -59.20164 37092 ft 501 kts 53°
2026-05-06 16:44 47.67843 -59.11595 37095 ft 499 kts 53°
2026-05-06 16:44 47.71704 -59.03032 37101 ft 499 kts 54°
2026-05-06 16:45 47.75558 -58.94459 37098 ft 499 kts 54°
2026-05-06 16:45 47.79412 -58.85860 37099 ft 499 kts 54°
2026-05-06 16:46 47.83231 -58.77308 37099 ft 499 kts 54°
2026-05-06 16:46 47.87072 -58.68682 37101 ft 500 kts 54°
2026-05-06 16:47 47.90912 -58.60032 37100 ft 501 kts 54°
2026-05-06 16:47 47.94749 -58.51357 37091 ft 501 kts 54°
2026-05-06 16:48 47.98585 -58.42660 37089 ft 501 kts 54°
2026-05-06 16:48 48.02408 -58.33963 37108 ft 501 kts 55°
2026-05-06 16:49 48.06222 -58.25258 37102 ft 501 kts 55°
2026-05-06 16:49 48.10031 -58.16538 37097 ft 501 kts 55°
2026-05-06 16:50 48.13836 -58.07801 37096 ft 501 kts 55°
2026-05-06 16:50 48.17632 -57.99055 37092 ft 501 kts 55°
2026-05-06 16:51 48.21425 -57.90286 37099 ft 501 kts 55°
2026-05-06 16:51 48.25187 -57.81562 37101 ft 501 kts 56°
2026-05-06 16:52 48.28967 -57.72768 37099 ft 501 kts 56°
2026-05-06 16:52 48.32744 -57.63953 37091 ft 502 kts 56°
2026-05-06 16:53 48.36517 -57.55116 37092 ft 502 kts 56°
2026-05-06 16:53 48.40282 -57.46268 37100 ft 502 kts 56°
2026-05-06 16:54 48.44044 -57.37400 37100 ft 502 kts 56°
2026-05-06 16:54 48.47169 -57.30013 37097 ft 504 kts 56°
2026-05-06 16:55 48.51544 -57.19638 37088 ft 504 kts 56°
2026-05-06 16:55 48.55300 -57.10695 37088 ft 505 kts 56°
2026-05-06 16:56 48.58444 -57.03186 37044 ft 505 kts 56°
2026-05-06 16:56 48.62152 -56.94301 37056 ft 501 kts 56°
2026-05-06 16:57 48.65864 -56.85382 37054 ft 500 kts 56°
2026-05-06 16:57 48.69563 -56.76462 37053 ft 500 kts 56°
2026-05-06 16:58 48.73258 -56.67523 37064 ft 500 kts 56°
2026-05-06 16:58 48.76945 -56.58577 37053 ft 501 kts 57°
2026-05-06 16:59 48.80626 -56.49610 37058 ft 501 kts 57°
2026-05-06 16:59 48.84301 -56.40627 37060 ft 501 kts 57°
2026-05-06 17:00 48.87949 -56.31682 37054 ft 501 kts 57°
2026-05-06 17:00 48.91610 -56.22671 37062 ft 501 kts 57°
2026-05-06 17:01 48.95268 -56.13642 37064 ft 501 kts 57°
2026-05-06 17:01 48.98918 -56.04602 37070 ft 501 kts 57°
2026-05-06 17:02 49.02559 -55.95554 37077 ft 501 kts 57°
2026-05-06 17:02 49.06201 -55.86470 37057 ft 503 kts 58°
2026-05-06 17:03 49.09848 -55.77346 37066 ft 504 kts 58°
2026-05-06 17:03 49.13465 -55.68260 37063 ft 504 kts 58°
2026-05-06 17:04 49.17099 -55.59104 37075 ft 504 kts 58°
2026-05-06 17:04 49.20733 -55.49916 37056 ft 505 kts 58°
2026-05-06 17:05 49.24364 -55.40701 37055 ft 506 kts 58°
2026-05-06 17:05 49.27990 -55.31469 37058 ft 506 kts 58°
2026-05-06 17:06 49.31608 -55.22225 37057 ft 506 kts 58°
2026-05-06 17:06 49.35219 -55.12965 37062 ft 506 kts 58°
2026-05-06 17:07 49.38828 -55.03679 37043 ft 506 kts 59°
2026-05-06 17:07 49.42404 -54.94445 37041 ft 506 kts 59°
2026-05-06 17:08 49.45996 -54.85137 37047 ft 506 kts 59°
2026-05-06 17:08 49.49581 -54.75811 37061 ft 507 kts 59°
2026-05-06 17:09 49.53167 -54.66452 37034 ft 507 kts 59°
2026-05-06 17:09 49.56737 -54.57101 37042 ft 506 kts 59°
2026-05-06 17:10 49.60298 -54.47741 37024 ft 506 kts 59°
2026-05-06 17:10 49.63836 -54.38409 37040 ft 507 kts 59°
2026-05-06 17:11 49.67387 -54.29008 37022 ft 507 kts 59°
2026-05-06 17:11 49.70932 -54.19588 37032 ft 507 kts 59°
2026-05-06 17:12 49.74467 -54.10160 37030 ft 507 kts 59°
2026-05-06 17:12 49.77997 -54.00713 37027 ft 507 kts 59°
2026-05-06 17:13 49.81519 -53.91252 37026 ft 507 kts 59°
2026-05-06 17:13 49.85033 -53.81778 37024 ft 507 kts 59°
2026-05-06 17:14 49.88542 -53.72282 37029 ft 507 kts 59°
2026-05-06 17:14 49.92024 -53.62828 37035 ft 508 kts 59°
2026-05-06 17:15 49.95522 -53.53294 37033 ft 508 kts 59°
2026-05-06 17:15 49.99006 -53.43760 37012 ft 508 kts 59°
2026-05-06 17:16 50.02486 -53.34207 37021 ft 507 kts 59°
2026-05-06 17:16 50.05947 -53.24665 37043 ft 506 kts 59°
2026-05-06 17:17 50.09401 -53.15111 37048 ft 506 kts 59°
2026-05-06 17:17 50.12847 -53.05542 37047 ft 506 kts 59°
2026-05-06 17:18 50.16286 -52.95958 37056 ft 506 kts 59°
2026-05-06 17:18 50.19696 -52.86418 37039 ft 507 kts 59°
2026-05-06 17:19 50.23121 -52.76801 37060 ft 507 kts 59°
2026-05-06 17:19 50.26545 -52.67152 37043 ft 507 kts 60°
2026-05-06 17:20 50.29954 -52.57505 37053 ft 507 kts 59°
2026-05-06 17:20 50.33363 -52.47825 37051 ft 508 kts 60°
2026-05-06 17:21 50.36767 -52.38124 37050 ft 508 kts 60°
2026-05-06 17:21 50.40161 -52.28411 37048 ft 508 kts 60°
2026-05-06 17:22 50.43548 -52.18680 37049 ft 508 kts 60°
2026-05-06 17:22 50.46904 -52.09001 37050 ft 507 kts 59°
2026-05-06 17:23 50.50155 -51.99160 37070 ft 508 kts 65°
2026-05-06 17:23 50.52918 -51.88954 37053 ft 508 kts 66°
2026-05-06 17:24 50.55587 -51.78662 37060 ft 508 kts 66°
2026-05-06 17:24 50.58236 -51.68341 37056 ft 508 kts 66°
2026-05-06 17:25 50.60883 -51.58018 37055 ft 509 kts 66°
2026-05-06 17:25 50.63525 -51.47688 37059 ft 509 kts 67°
2026-05-06 17:26 50.66164 -51.37333 37058 ft 509 kts 67°
2026-05-06 17:26 50.68774 -51.27041 37064 ft 508 kts 67°
2026-05-06 17:27 50.71390 -51.16677 37064 ft 508 kts 67°
2026-05-06 17:27 50.73997 -51.06304 37074 ft 508 kts 66°
2026-05-06 17:28 50.76583 -50.95961 37062 ft 505 kts 67°
2026-05-06 17:28 50.79141 -50.85681 37074 ft 501 kts 66°
2026-05-06 17:29 50.81682 -50.75426 37072 ft 501 kts 67°
2026-05-06 17:29 50.84213 -50.65166 37073 ft 501 kts 67°
2026-05-06 17:30 50.86736 -50.54892 37070 ft 501 kts 67°
2026-05-06 17:30 50.89255 -50.44582 37078 ft 501 kts 67°
2026-05-06 17:31 50.91741 -50.34359 37077 ft 501 kts 67°
2026-05-06 17:31 50.94234 -50.24061 37077 ft 500 kts 67°
2026-05-06 17:32 50.96719 -50.13748 37074 ft 500 kts 67°
2026-05-06 17:32 50.99193 -50.03432 37074 ft 500 kts 67°
2026-05-06 17:33 51.01688 -49.93150 37079 ft 498 kts 66°
2026-05-06 17:33 51.04275 -49.82936 37078 ft 497 kts 65°
2026-05-06 17:34 51.06856 -49.72741 37077 ft 498 kts 65°
2026-05-06 17:34 51.09418 -49.62512 37078 ft 498 kts 66°
2026-05-06 17:35 51.11962 -49.52265 37077 ft 498 kts 66°
2026-05-06 17:35 51.14477 -49.42077 37077 ft 497 kts 66°
2026-05-06 17:36 51.18254 -49.26697 37072 ft 497 kts 66°
2026-05-06 17:36 51.20763 -49.16421 37080 ft 497 kts 66°
2026-05-06 17:37 51.23264 -49.06129 37075 ft 497 kts 66°
2026-05-06 17:37 51.25752 -48.95842 37069 ft 497 kts 66°
2026-05-06 17:38 51.28228 -48.85555 37078 ft 496 kts 66°
2026-05-06 17:38 51.30694 -48.75263 37083 ft 496 kts 66°
2026-05-06 17:39 51.33151 -48.64963 37081 ft 496 kts 66°
2026-05-06 17:39 51.35599 -48.54646 37083 ft 495 kts 66°
2026-05-06 17:40 51.38034 -48.44341 37080 ft 495 kts 66°
2026-05-06 17:40 51.40458 -48.34032 37080 ft 495 kts 66°
2026-05-06 17:41 51.42871 -48.23717 37087 ft 495 kts 66°
2026-05-06 17:41 51.45277 -48.13385 37083 ft 495 kts 66°
2026-05-06 17:42 51.47670 -48.03052 37077 ft 493 kts 66°
2026-05-06 17:42 51.50050 -47.92729 37084 ft 493 kts 66°
2026-05-06 17:43 51.52407 -47.82460 37085 ft 493 kts 66°
2026-05-06 17:43 51.54762 -47.72142 37095 ft 491 kts 66°
2026-05-06 17:44 51.57106 -47.61830 37092 ft 490 kts 66°
2026-05-06 17:44 51.59431 -47.51547 37088 ft 489 kts 66°
2026-05-06 17:45 51.61748 -47.41254 37091 ft 489 kts 66°
2026-05-06 17:45 51.64055 -47.30953 37091 ft 489 kts 66°
2026-05-06 17:46 51.65966 -47.22383 37094 ft 489 kts 66°
2026-05-06 17:46 51.68253 -47.12073 37094 ft 488 kts 66°
2026-05-06 17:47 51.70531 -47.01758 37091 ft 487 kts 66°
2026-05-06 17:47 51.72794 -46.91460 37097 ft 487 kts 66°
2026-05-06 17:48 51.75050 -46.81141 37099 ft 487 kts 66°
2026-05-06 17:48 51.77282 -46.70881 37099 ft 488 kts 67°
2026-05-06 17:49 51.79518 -46.60550 37100 ft 486 kts 66°
2026-05-06 17:49 51.81738 -46.50241 37100 ft 486 kts 66°
2026-05-06 17:50 51.83952 -46.39911 37101 ft 486 kts 67°
2026-05-06 17:50 51.86158 -46.29565 37105 ft 486 kts 67°
2026-05-06 17:51 51.88352 -46.19216 37110 ft 486 kts 66°
2026-05-06 17:51 51.90540 -46.08849 37110 ft 487 kts 66°
2026-05-06 17:52 51.92720 -45.98468 37112 ft 487 kts 66°
2026-05-06 17:52 51.94889 -45.88080 37109 ft 487 kts 66°
2026-05-06 17:53 51.97052 -45.77672 37111 ft 487 kts 67°
2026-05-06 17:53 51.99188 -45.67334 37118 ft 486 kts 66°
2026-05-06 17:54 52.01327 -45.56928 37120 ft 486 kts 66°
2026-05-06 17:54 52.03454 -45.46531 37122 ft 485 kts 66°
2026-05-06 17:55 52.05570 -45.36133 37122 ft 485 kts 66°
2026-05-06 17:55 52.07675 -45.25733 37125 ft 485 kts 66°
2026-05-06 17:56 52.09774 -45.15308 37127 ft 485 kts 66°
2026-05-06 17:56 52.11864 -45.04876 37129 ft 485 kts 66°
2026-05-06 17:57 52.13945 -44.94428 37136 ft 485 kts 66°
2026-05-06 17:57 52.16017 -44.83969 37135 ft 485 kts 67°
2026-05-06 17:58 52.18080 -44.73494 37157 ft 485 kts 66°
2026-05-06 17:58 52.20130 -44.63030 37139 ft 484 kts 66°
2026-05-06 17:59 52.22154 -44.52647 37142 ft 484 kts 66°
2026-05-06 17:59 52.24184 -44.42179 37140 ft 484 kts 66°
2026-05-06 18:00 52.26205 -44.31701 37147 ft 484 kts 66°
2026-05-06 18:00 52.28218 -44.21206 37146 ft 485 kts 66°
2026-05-06 18:01 52.30223 -44.10691 37153 ft 485 kts 66°
2026-05-06 18:01 52.32217 -44.00171 37152 ft 485 kts 66°
2026-05-06 18:02 52.34203 -43.89639 37151 ft 485 kts 67°
2026-05-06 18:02 52.36180 -43.79097 37153 ft 485 kts 67°
2026-05-06 18:03 52.38146 -43.68549 37157 ft 484 kts 66°
2026-05-06 18:03 52.40103 -43.57992 37153 ft 484 kts 66°
2026-05-06 18:04 52.42037 -43.47505 37156 ft 484 kts 66°
2026-05-06 18:04 52.43974 -43.36938 37159 ft 484 kts 66°
2026-05-06 18:05 52.45900 -43.26365 37153 ft 484 kts 66°
2026-05-06 18:05 52.47816 -43.15785 37167 ft 482 kts 66°
2026-05-06 18:06 52.49710 -43.05260 37163 ft 480 kts 66°
2026-05-06 18:06 52.51597 -42.94734 37162 ft 480 kts 66°
2026-05-06 18:07 52.53462 -42.84266 37157 ft 480 kts 66°
2026-05-06 18:07 52.55329 -42.73723 37189 ft 481 kts 66°
2026-05-06 18:08 52.57180 -42.63195 37162 ft 478 kts 66°
2026-05-06 18:08 52.59017 -42.52694 37167 ft 478 kts 66°
2026-05-06 18:09 52.60848 -42.42175 37166 ft 478 kts 67°
2026-05-06 18:09 52.62668 -42.31651 37165 ft 478 kts 67°
2026-05-06 18:10 52.64478 -42.21120 37188 ft 478 kts 67°
2026-05-06 18:10 52.66277 -42.10583 37169 ft 478 kts 67°
2026-05-06 18:11 52.68066 -42.00048 37172 ft 478 kts 67°
2026-05-06 18:11 52.69847 -41.89497 37159 ft 478 kts 67°
2026-05-06 18:12 52.71619 -41.78939 37171 ft 478 kts 67°
2026-05-06 18:12 52.73381 -41.68369 37168 ft 478 kts 67°
2026-05-06 18:13 52.75138 -41.57773 37165 ft 479 kts 67°
2026-05-06 18:13 52.76885 -41.47172 37165 ft 479 kts 67°
2026-05-06 18:14 52.78610 -41.36630 37165 ft 479 kts 67°
2026-05-06 18:14 52.80338 -41.26007 37165 ft 479 kts 67°
2026-05-06 18:15 52.82058 -41.15366 37164 ft 479 kts 68°
2026-05-06 18:15 52.83770 -41.04700 37162 ft 480 kts 68°
2026-05-06 18:16 52.85474 -40.94019 37162 ft 480 kts 68°
2026-05-06 18:16 52.87169 -40.83325 37162 ft 480 kts 68°
2026-05-06 18:17 52.88854 -40.72630 37182 ft 480 kts 68°
2026-05-06 18:17 52.90531 -40.61922 37163 ft 480 kts 69°
2026-05-06 18:18 52.92193 -40.51227 37162 ft 479 kts 69°
2026-05-06 18:18 52.93847 -40.40521 37160 ft 480 kts 69°
2026-05-06 18:19 52.95481 -40.29874 37161 ft 480 kts 69°
2026-05-06 18:19 52.97118 -40.19142 37157 ft 480 kts 69°
2026-05-06 18:20 52.98743 -40.08411 37157 ft 479 kts 70°
2026-05-06 18:20 53.00357 -39.97675 37157 ft 479 kts 70°
2026-05-06 18:21 53.01921 -39.86910 37160 ft 480 kts 70°
2026-05-06 18:21 53.03454 -39.76112 37159 ft 480 kts 70°
2026-05-06 18:22 53.04973 -39.65378 37157 ft 480 kts 70°
2026-05-06 18:22 53.06494 -39.54592 37152 ft 479 kts 71°
2026-05-06 18:23 53.08007 -39.43803 37161 ft 479 kts 71°
2026-05-06 18:23 53.09511 -39.33003 37154 ft 479 kts 71°
2026-05-06 18:24 53.11005 -39.22196 37149 ft 479 kts 71°
2026-05-06 18:24 53.12489 -39.11384 37149 ft 479 kts 71°
2026-05-06 18:25 53.13962 -39.00565 37148 ft 479 kts 72°
2026-05-06 18:25 53.15428 -38.89723 37147 ft 479 kts 72°
2026-05-06 18:26 53.16873 -38.78956 37146 ft 479 kts 72°
2026-05-06 18:26 53.18319 -38.68106 37145 ft 479 kts 72°
2026-05-06 18:27 53.19755 -38.57245 37162 ft 479 kts 72°
2026-05-06 18:27 53.21176 -38.46408 37145 ft 478 kts 72°
2026-05-06 18:28 53.22587 -38.35573 37139 ft 478 kts 72°
2026-05-06 18:28 53.23989 -38.24728 37143 ft 478 kts 73°
2026-05-06 18:29 53.25372 -38.13952 37128 ft 478 kts 73°
2026-05-06 18:29 53.26756 -38.03078 37161 ft 479 kts 73°
2026-05-06 18:30 53.28128 -37.92200 37131 ft 478 kts 73°
2026-05-06 18:30 53.29488 -37.81344 37132 ft 477 kts 73°
2026-05-06 18:31 53.30840 -37.70469 37127 ft 477 kts 73°
2026-05-06 18:31 53.32182 -37.59593 37128 ft 477 kts 74°
2026-05-06 18:32 53.33504 -37.48785 37140 ft 477 kts 74°
2026-05-06 18:32 53.34824 -37.37908 37126 ft 476 kts 74°
2026-05-06 18:33 53.36131 -37.27040 37125 ft 476 kts 74°
2026-05-06 18:33 53.37429 -37.16170 37121 ft 476 kts 75°
2026-05-06 18:34 53.38717 -37.05291 37118 ft 476 kts 75°
2026-05-06 18:34 53.39995 -36.94406 37132 ft 476 kts 75°
2026-05-06 18:35 53.41265 -36.83506 37113 ft 476 kts 75°
2026-05-06 18:35 53.42523 -36.72604 37111 ft 476 kts 75°
2026-05-06 18:36 53.43763 -36.61773 37108 ft 476 kts 75°
2026-05-06 18:36 53.45000 -36.50874 37108 ft 476 kts 75°
2026-05-06 18:37 53.46030 -36.41726 37122 ft 476 kts 76°
2026-05-06 18:37 53.47446 -36.29040 37102 ft 475 kts 76°
2026-05-06 18:38 53.48652 -36.18130 37097 ft 475 kts 76°
2026-05-06 18:38 53.49848 -36.07217 37097 ft 475 kts 76°
2026-05-06 18:39 53.51034 -35.96302 37091 ft 475 kts 76°
2026-05-06 18:40 53.52788 -35.79986 37098 ft 475 kts 77°
2026-05-06 18:40 53.53947 -35.69068 37089 ft 474 kts 77°
2026-05-06 18:41 53.54911 -35.59917 37089 ft 475 kts 77°
2026-05-06 18:41 53.56054 -35.48971 37080 ft 475 kts 77°
2026-05-06 18:42 53.57178 -35.38105 37083 ft 475 kts 77°
2026-05-06 18:42 53.58302 -35.27142 37076 ft 475 kts 78°
2026-05-06 18:43 53.59413 -35.16188 37074 ft 474 kts 78°
2026-05-06 18:43 53.60515 -35.05233 37072 ft 474 kts 78°
2026-05-06 18:44 53.61607 -34.94266 37073 ft 475 kts 78°
2026-05-06 18:44 53.62690 -34.83292 37069 ft 474 kts 78°
2026-05-06 18:45 53.63762 -34.72318 37071 ft 474 kts 78°
2026-05-06 18:45 53.64822 -34.61358 37062 ft 474 kts 78°
2026-05-06 18:46 53.65863 -34.50480 37061 ft 474 kts 78°
2026-05-06 18:46 53.66903 -34.39511 37058 ft 474 kts 78°
2026-05-06 18:47 53.67933 -34.28538 37060 ft 474 kts 79°
2026-05-06 18:47 53.68952 -34.17560 37061 ft 473 kts 79°
2026-05-06 18:48 53.69960 -34.06589 37055 ft 473 kts 79°
2026-05-06 18:48 53.70959 -33.95616 37053 ft 473 kts 79°
2026-05-06 18:49 53.71946 -33.84642 37055 ft 473 kts 79°
2026-05-06 18:49 53.72924 -33.73658 37051 ft 473 kts 79°
2026-05-06 18:50 53.73892 -33.62678 37045 ft 473 kts 79°
2026-05-06 18:50 53.74843 -33.51754 37042 ft 473 kts 79°
2026-05-06 18:51 53.75791 -33.40758 37044 ft 473 kts 79°
2026-05-06 18:51 53.76729 -33.29759 37043 ft 473 kts 79°
2026-05-06 18:52 53.77657 -33.18746 37040 ft 473 kts 80°
2026-05-06 18:52 53.78575 -33.07728 37027 ft 473 kts 80°
2026-05-06 18:53 53.79484 -32.96694 37036 ft 474 kts 80°
2026-05-06 18:53 53.80382 -32.85663 37032 ft 474 kts 80°
2026-05-06 18:54 53.81270 -32.74623 37035 ft 474 kts 80°
2026-05-06 18:54 53.82149 -32.63571 37024 ft 473 kts 81°
2026-05-06 18:55 53.83011 -32.52592 37021 ft 474 kts 80°
2026-05-06 18:55 53.83869 -32.41537 37030 ft 474 kts 81°
2026-05-06 18:56 53.84718 -32.30459 37021 ft 474 kts 80°
2026-05-06 18:56 53.85558 -32.19376 37019 ft 474 kts 81°
2026-05-06 18:57 53.86387 -32.08292 37027 ft 474 kts 80°
2026-05-06 18:57 53.87205 -31.97204 37020 ft 474 kts 81°
2026-05-06 18:58 53.88016 -31.86090 37011 ft 475 kts 81°
2026-05-06 18:58 53.88816 -31.74963 37008 ft 476 kts 82°
2026-05-06 18:59 53.89605 -31.63827 37006 ft 476 kts 81°
2026-05-06 18:59 53.90385 -31.52692 37003 ft 476 kts 81°
2026-05-06 19:00 53.91154 -31.41542 37019 ft 476 kts 81°
2026-05-06 19:00 53.91916 -31.30370 37017 ft 478 kts 82°
2026-05-06 19:01 53.92664 -31.19246 37023 ft 478 kts 82°
2026-05-06 19:01 53.93406 -31.08037 37023 ft 478 kts 82°
2026-05-06 19:02 53.94139 -30.96826 37006 ft 478 kts 82°
2026-05-06 19:02 53.94858 -30.85621 37007 ft 478 kts 81°
2026-05-06 19:03 53.95568 -30.74410 37017 ft 478 kts 82°
2026-05-06 19:03 53.96268 -30.63184 37012 ft 478 kts 82°
2026-05-06 19:04 53.96957 -30.51945 37019 ft 478 kts 82°
2026-05-06 19:04 53.97639 -30.40680 37008 ft 480 kts 82°
2026-05-06 19:05 53.98311 -30.29390 37014 ft 480 kts 83°
2026-05-06 19:05 53.98968 -30.18169 37013 ft 480 kts 82°
2026-05-06 19:06 53.99622 -30.06852 37022 ft 481 kts 83°
2026-05-06 19:06 54.00670 -29.95650 37019 ft 479 kts 75°
2026-05-06 19:07 54.02183 -29.84635 37025 ft 478 kts 74°
2026-05-06 19:07 54.03769 -29.73629 37040 ft 479 kts 74°
2026-05-06 19:08 54.05345 -29.62616 37025 ft 479 kts 75°
2026-05-06 19:08 54.06905 -29.51571 37036 ft 479 kts 75°
2026-05-06 19:09 54.08437 -29.40600 37034 ft 479 kts 75°
2026-05-06 19:09 54.09969 -29.29545 37040 ft 479 kts 75°
2026-05-06 19:10 54.11489 -29.18489 37041 ft 479 kts 76°
2026-05-06 19:10 54.13000 -29.07428 37048 ft 479 kts 76°
2026-05-06 19:11 54.14502 -28.96347 37039 ft 479 kts 76°
2026-05-06 19:11 54.15990 -28.85283 37045 ft 479 kts 76°
2026-05-06 19:12 54.17469 -28.74206 37046 ft 479 kts 76°
2026-05-06 19:12 54.18939 -28.63114 37047 ft 479 kts 76°
2026-05-06 19:13 54.20398 -28.52019 37045 ft 480 kts 77°
2026-05-06 19:13 54.21851 -28.40883 37048 ft 480 kts 77°
2026-05-06 19:14 54.23292 -28.29746 37048 ft 480 kts 77°
2026-05-06 19:14 54.24715 -28.18671 37045 ft 480 kts 77°
2026-05-06 19:15 54.26135 -28.07525 37046 ft 480 kts 77°
2026-05-06 19:15 54.27546 -27.96364 37046 ft 480 kts 77°
2026-05-06 19:16 54.28947 -27.85195 37046 ft 480 kts 77°
2026-05-06 19:16 54.30338 -27.74011 37046 ft 480 kts 77°
2026-05-06 19:17 54.31718 -27.62828 37049 ft 480 kts 77°
2026-05-06 19:17 54.33078 -27.51716 37044 ft 479 kts 77°
2026-05-06 19:18 54.34436 -27.40533 37044 ft 479 kts 78°
2026-05-06 19:18 54.35784 -27.29338 37044 ft 479 kts 78°
2026-05-06 19:19 54.37120 -27.18141 37045 ft 479 kts 78°
2026-05-06 19:19 54.38447 -27.06939 37041 ft 480 kts 78°
2026-05-06 19:20 54.39767 -26.95692 37042 ft 481 kts 78°
2026-05-06 19:20 54.41078 -26.84423 37043 ft 481 kts 78°
2026-05-06 19:21 54.42379 -26.73150 37039 ft 481 kts 78°
2026-05-06 19:21 54.43667 -26.61884 37044 ft 481 kts 78°
2026-05-06 19:22 54.44940 -26.50662 37046 ft 482 kts 79°
2026-05-06 19:22 54.46212 -26.39340 37037 ft 483 kts 79°
2026-05-06 19:23 54.47475 -26.28003 37038 ft 482 kts 79°
2026-05-06 19:23 54.48722 -26.16702 37041 ft 480 kts 79°
2026-05-06 19:24 54.49955 -26.05419 37041 ft 480 kts 79°
2026-05-06 19:24 54.51183 -25.94094 37043 ft 481 kts 79°
2026-05-06 19:25 54.52393 -25.82823 37038 ft 482 kts 79°
2026-05-06 19:25 54.53600 -25.71476 37036 ft 482 kts 79°
2026-05-06 19:26 54.54797 -25.60108 37039 ft 482 kts 79°
2026-05-06 19:26 54.55985 -25.48736 37038 ft 482 kts 80°
2026-05-06 19:27 54.57162 -25.37341 37030 ft 483 kts 80°
2026-05-06 19:27 54.58331 -25.25925 37030 ft 483 kts 80°
2026-05-06 19:28 54.59488 -25.14509 37031 ft 483 kts 80°
2026-05-06 19:28 54.60635 -25.03083 37030 ft 483 kts 80°
2026-05-06 19:29 54.61771 -24.91656 37026 ft 483 kts 81°
2026-05-06 19:29 54.62896 -24.80224 37030 ft 483 kts 81°
2026-05-06 19:30 54.64010 -24.68783 37035 ft 483 kts 81°
2026-05-06 19:30 54.64927 -24.59276 37029 ft 483 kts 81°
2026-05-06 19:31 54.66199 -24.45957 37029 ft 483 kts 81°
2026-05-06 19:31 54.67816 -24.28781 37031 ft 483 kts 81°
2026-05-06 19:32 54.68708 -24.19189 37015 ft 483 kts 81°
2026-05-06 19:32 54.69763 -24.07730 37017 ft 483 kts 82°
2026-05-06 19:33 54.70800 -23.96344 37022 ft 482 kts 82°
2026-05-06 19:33 54.71833 -23.84885 37018 ft 482 kts 82°
2026-05-06 19:34 54.72855 -23.73417 37021 ft 482 kts 82°
2026-05-06 19:34 54.73867 -23.61935 37021 ft 482 kts 82°
2026-05-06 19:35 54.74868 -23.50450 37014 ft 482 kts 82°
2026-05-06 19:35 54.75858 -23.38962 37013 ft 482 kts 82°
2026-05-06 19:36 54.76838 -23.27451 37011 ft 483 kts 83°
2026-05-06 19:36 54.77809 -23.15925 37002 ft 483 kts 83°
2026-05-06 19:37 54.78762 -23.04472 37004 ft 483 kts 83°
2026-05-06 19:37 54.79710 -22.92937 37002 ft 483 kts 83°
2026-05-06 19:38 54.80647 -22.81402 36998 ft 483 kts 83°
2026-05-06 19:38 54.81574 -22.69845 37001 ft 483 kts 83°
2026-05-06 19:39 54.82490 -22.58293 36990 ft 483 kts 83°
2026-05-06 19:39 54.83394 -22.46740 36992 ft 483 kts 83°
2026-05-06 19:40 54.84288 -22.35174 36990 ft 483 kts 83°
2026-05-06 19:40 54.85165 -22.23687 36988 ft 483 kts 84°
2026-05-06 19:41 54.86037 -22.12106 36979 ft 484 kts 84°
2026-05-06 19:41 54.86899 -22.00511 36990 ft 484 kts 84°
2026-05-06 19:42 54.87750 -21.88911 36980 ft 484 kts 84°
2026-05-06 19:42 54.88591 -21.77299 36976 ft 484 kts 84°
2026-05-06 19:43 54.89420 -21.65687 36966 ft 484 kts 84°
2026-05-06 19:43 54.90238 -21.54066 36970 ft 484 kts 85°
2026-05-06 19:44 54.91044 -21.42454 36969 ft 484 kts 85°
2026-05-06 19:44 54.91834 -21.30914 36967 ft 484 kts 85°
2026-05-06 19:45 54.92618 -21.19298 36970 ft 484 kts 85°
2026-05-06 19:45 54.93391 -21.07666 36962 ft 485 kts 85°
2026-05-06 19:46 54.94154 -20.96018 36961 ft 485 kts 85°
2026-05-06 19:46 54.94906 -20.84360 36961 ft 485 kts 85°
2026-05-06 19:47 54.95649 -20.72684 36954 ft 485 kts 85°
2026-05-06 19:47 54.96379 -20.61011 36951 ft 485 kts 85°
2026-05-06 19:48 54.97094 -20.49397 36951 ft 486 kts 85°
2026-05-06 19:48 54.97804 -20.37686 36947 ft 486 kts 85°
2026-05-06 19:49 54.98503 -20.25970 36938 ft 486 kts 86°
2026-05-06 19:49 54.99190 -20.14255 36938 ft 486 kts 86°
2026-05-06 19:50 54.99876 -20.02540 36935 ft 486 kts 84°
2026-05-06 19:50 55.01102 -19.90924 36938 ft 488 kts 79°
2026-05-06 19:51 55.02484 -19.79337 36927 ft 488 kts 79°
2026-05-06 19:51 55.03876 -19.67835 36924 ft 488 kts 79°
2026-05-06 19:52 55.05259 -19.56244 36922 ft 488 kts 79°
2026-05-06 19:52 55.06625 -19.44638 36921 ft 488 kts 79°
2026-05-06 19:53 55.07978 -19.33020 36919 ft 489 kts 79°
2026-05-06 19:53 55.09321 -19.21377 36922 ft 489 kts 79°
2026-05-06 19:54 55.10652 -19.09740 36914 ft 489 kts 80°
2026-05-06 19:54 55.11973 -18.98094 36914 ft 489 kts 80°
2026-05-06 19:55 55.13282 -18.86437 36910 ft 489 kts 80°
2026-05-06 19:55 55.14583 -18.74750 36900 ft 489 kts 80°
2026-05-06 19:56 55.15864 -18.63133 36899 ft 490 kts 80°
2026-05-06 19:56 55.17143 -18.51424 36895 ft 490 kts 80°
2026-05-06 19:57 55.18411 -18.39716 36893 ft 490 kts 80°
2026-05-06 19:57 55.19669 -18.27978 36877 ft 491 kts 80°
2026-05-06 19:58 55.20916 -18.16237 36891 ft 490 kts 80°
2026-05-06 19:58 55.22149 -18.04511 36887 ft 489 kts 81°
2026-05-06 19:59 55.23364 -17.92843 36886 ft 489 kts 81°
2026-05-06 19:59 55.24574 -17.81105 36881 ft 490 kts 81°
2026-05-06 20:00 55.25775 -17.69345 36883 ft 490 kts 81°
2026-05-06 20:00 55.26965 -17.57568 36881 ft 491 kts 81°
2026-05-06 20:01 55.28144 -17.45778 36873 ft 490 kts 81°
2026-05-06 20:01 55.29312 -17.33991 36873 ft 490 kts 81°
2026-05-06 20:02 55.30467 -17.22201 36870 ft 490 kts 81°
2026-05-06 20:02 55.31612 -17.10391 36875 ft 490 kts 81°
2026-05-06 20:03 55.32738 -16.98662 36876 ft 490 kts 81°
2026-05-06 20:03 55.33859 -16.86855 36875 ft 490 kts 81°
2026-05-06 20:04 55.34969 -16.75035 36868 ft 490 kts 81°
2026-05-06 20:04 55.36068 -16.63208 36867 ft 490 kts 81°
2026-05-06 20:05 55.37156 -16.51366 36867 ft 490 kts 81°
2026-05-06 20:05 55.38233 -16.39520 36867 ft 490 kts 82°
2026-05-06 20:06 55.39297 -16.27675 36864 ft 490 kts 82°
2026-05-06 20:06 55.40351 -16.15815 36864 ft 491 kts 81°
2026-05-06 20:07 55.41388 -16.04004 36866 ft 492 kts 82°
2026-05-06 20:07 55.42421 -15.92106 36862 ft 492 kts 82°
2026-05-06 20:08 55.43444 -15.80191 36859 ft 492 kts 82°
2026-05-06 20:08 55.44454 -15.68277 36858 ft 492 kts 82°
2026-05-06 20:09 55.45452 -15.56366 36859 ft 491 kts 82°
2026-05-06 20:09 55.46438 -15.44448 36859 ft 491 kts 82°
2026-05-06 20:10 55.47413 -15.32529 36859 ft 491 kts 82°
2026-05-06 20:10 55.48376 -15.20603 36858 ft 491 kts 82°
2026-05-06 20:11 55.49321 -15.08746 36858 ft 491 kts 82°
2026-05-06 20:11 55.49975 -14.96757 36858 ft 491 kts 89°
2026-05-06 20:12 55.50093 -14.84708 36868 ft 491 kts 90°
2026-05-06 20:12 55.50112 -14.72648 36871 ft 491 kts 90°
2026-05-06 20:13 55.50112 -14.60609 36866 ft 491 kts 90°
2026-05-06 20:13 55.50110 -14.48562 36866 ft 491 kts 90°
2026-05-06 20:14 55.50102 -14.36521 36867 ft 491 kts 90°
2026-05-06 20:14 55.50084 -14.24476 36866 ft 491 kts 90°
2026-05-06 20:15 55.50053 -14.12425 36868 ft 491 kts 91°
2026-05-06 20:15 55.50011 -14.00385 36868 ft 491 kts 90°
2026-05-06 20:16 55.50095 -13.88381 36879 ft 489 kts 88°
2026-05-06 20:16 55.50321 -13.76484 36878 ft 488 kts 88°
2026-05-06 20:17 55.50528 -13.64516 36878 ft 488 kts 89°
2026-05-06 20:17 55.50694 -13.52538 36879 ft 488 kts 89°
2026-05-06 20:18 55.50836 -13.40555 36879 ft 488 kts 89°
2026-05-06 20:18 55.50966 -13.28566 36878 ft 489 kts 89°
2026-05-06 20:19 55.51085 -13.16578 36878 ft 489 kts 89°
2026-05-06 20:19 55.51193 -13.04583 36878 ft 489 kts 89°
2026-05-06 20:20 55.51289 -12.92595 36881 ft 489 kts 89°
2026-05-06 20:20 55.51373 -12.80609 36883 ft 489 kts 89°
2026-05-06 20:21 55.51446 -12.68680 36881 ft 489 kts 89°
2026-05-06 20:21 55.51507 -12.56686 36881 ft 489 kts 89°
2026-05-06 20:22 55.51557 -12.44689 36886 ft 489 kts 89°
2026-05-06 20:22 55.51595 -12.32685 36888 ft 489 kts 89°
2026-05-06 20:23 55.51620 -12.20678 36886 ft 489 kts 89°
2026-05-06 20:23 55.51633 -12.10702 36886 ft 489 kts 89°
2026-05-06 20:24 55.51638 -11.98685 36889 ft 489 kts 90°
2026-05-06 20:24 55.51631 -11.86687 36897 ft 489 kts 90°
2026-05-06 20:25 55.51612 -11.74681 36897 ft 489 kts 90°
2026-05-06 20:25 55.51581 -11.62674 36903 ft 489 kts 90°
2026-05-06 20:26 55.51539 -11.50672 36900 ft 489 kts 90°
2026-05-06 20:26 55.51485 -11.38668 36900 ft 489 kts 90°
2026-05-06 20:27 55.51419 -11.26665 36900 ft 489 kts 90°
2026-05-06 20:27 55.51341 -11.14665 36900 ft 489 kts 90°
2026-05-06 20:28 55.51252 -11.02659 36905 ft 489 kts 90°
2026-05-06 20:28 55.51151 -10.90662 36904 ft 489 kts 90°
2026-05-06 20:29 55.51039 -10.78736 36913 ft 489 kts 90°
2026-05-06 20:29 55.50914 -10.66729 36917 ft 489 kts 91°
2026-05-06 20:30 55.50705 -10.48720 36914 ft 490 kts 90°
2026-05-06 20:31 55.50551 -10.36691 36919 ft 490 kts 91°
2026-05-06 20:31 55.50385 -10.24649 36920 ft 490 kts 91°
2026-05-06 20:32 55.50207 -10.12629 36917 ft 490 kts 91°
2026-05-06 20:32 55.50018 -10.00597 36920 ft 490 kts 91°
2026-05-06 20:33 55.49932 -9.88637 36921 ft 491 kts 89°
2026-05-06 20:33 55.49978 -9.76596 36927 ft 491 kts 89°
2026-05-06 20:34 55.50007 -9.64554 36925 ft 491 kts 89°
2026-05-06 20:34 55.49997 -9.52507 36928 ft 491 kts 89°
2026-05-06 20:35 55.49964 -9.40458 36935 ft 491 kts 89°
2026-05-06 20:35 55.49918 -9.28420 36940 ft 491 kts 89°
2026-05-06 20:36 55.49861 -9.16394 36940 ft 491 kts 90°
2026-05-06 20:36 55.49792 -9.04353 36937 ft 491 kts 90°
2026-05-06 20:37 55.49714 -8.92398 36952 ft 491 kts 90°
2026-05-06 20:37 55.49622 -8.80360 36945 ft 491 kts 90°
2026-05-06 20:38 55.49519 -8.68319 36944 ft 491 kts 90°
2026-05-06 20:38 55.49403 -8.56270 36944 ft 491 kts 90°
2026-05-06 20:39 55.49276 -8.44223 36933 ft 491 kts 90°
2026-05-06 20:39 55.49137 -8.32193 36957 ft 489 kts 90°
2026-05-06 20:40 55.48987 -8.20222 36957 ft 488 kts 90°
2026-05-06 20:40 55.48826 -8.08243 36952 ft 488 kts 90°
2026-05-06 20:41 55.48654 -7.96347 36955 ft 488 kts 90°
2026-05-06 20:41 55.48469 -7.84370 36956 ft 488 kts 90°
2026-05-06 20:42 55.48272 -7.72392 36960 ft 489 kts 90°
2026-05-06 20:42 55.48064 -7.60405 36954 ft 490 kts 90°
2026-05-06 20:43 55.47843 -7.48391 36961 ft 490 kts 91°
2026-05-06 20:43 55.47610 -7.36381 36961 ft 490 kts 91°
2026-05-06 20:44 55.47368 -7.24454 36963 ft 490 kts 91°
2026-05-06 20:44 55.47112 -7.12439 36968 ft 491 kts 91°
2026-05-06 20:45 55.46844 -7.00423 36961 ft 491 kts 91°
2026-05-06 20:45 55.46564 -6.88412 36968 ft 491 kts 91°
2026-05-06 20:46 55.46273 -6.76389 36962 ft 491 kts 91°
2026-05-06 20:46 55.45969 -6.64370 36956 ft 491 kts 91°
2026-05-06 20:47 55.45654 -6.52362 36958 ft 490 kts 91°
2026-05-06 20:47 55.45327 -6.40354 36962 ft 490 kts 91°
2026-05-06 20:48 55.44989 -6.28361 36859 ft 490 kts 91°
2026-05-06 20:48 55.44816 -6.22364 36606 ft 491 kts 91°
2026-05-06 20:48 55.44639 -6.16366 36292 ft 488 kts 91°
2026-05-06 20:48 55.44460 -6.10405 35788 ft 487 kts 91°
2026-05-06 20:49 55.44281 -6.04505 35128 ft 491 kts 90°
2026-05-06 20:49 55.44096 -5.98489 34440 ft 493 kts 90°
2026-05-06 20:49 55.43907 -5.92443 33697 ft 496 kts 90°
2026-05-06 20:49 55.43714 -5.86368 32942 ft 497 kts 90°
2026-05-06 20:50 55.43518 -5.80284 32179 ft 498 kts 91°
2026-05-06 20:50 55.43319 -5.74187 31407 ft 500 kts 91°
2026-05-06 20:50 55.43102 -5.68072 30737 ft 500 kts 94°
2026-05-06 20:50 55.42551 -5.62067 30318 ft 494 kts 101°
2026-05-06 20:51 55.41855 -5.56157 29757 ft 490 kts 102°
2026-05-06 20:51 55.41116 -5.50344 29226 ft 485 kts 102°
2026-05-06 20:51 55.40355 -5.44593 28680 ft 480 kts 103°
2026-05-06 20:51 55.39588 -5.38897 28143 ft 475 kts 103°
2026-05-06 20:52 55.38825 -5.33268 27626 ft 471 kts 103°
2026-05-06 20:52 55.38069 -5.27682 27092 ft 467 kts 103°
2026-05-06 20:52 55.37320 -5.22141 26567 ft 464 kts 103°
2026-05-06 20:52 55.36577 -5.16646 26033 ft 460 kts 103°
2026-05-06 20:53 55.35847 -5.11256 25514 ft 457 kts 103°
2026-05-06 20:53 55.35112 -5.05838 24987 ft 455 kts 103°
2026-05-06 20:53 55.34379 -5.00450 24471 ft 452 kts 103°
2026-05-06 20:53 55.33647 -4.95085 23960 ft 450 kts 104°
2026-05-06 20:54 55.32917 -4.89755 23414 ft 448 kts 104°
2026-05-06 20:54 55.32188 -4.84455 22843 ft 445 kts 104°
2026-05-06 20:54 55.31781 -4.79108 22340 ft 440 kts 90°
2026-05-06 20:54 55.32031 -4.73784 21812 ft 435 kts 81°
2026-05-06 20:55 55.32554 -4.68581 21331 ft 431 kts 77°
2026-05-06 20:55 55.33208 -4.63468 20837 ft 427 kts 75°
2026-05-06 20:55 55.33916 -4.58422 20340 ft 423 kts 75°
2026-05-06 20:55 55.34633 -4.53436 19848 ft 420 kts 75°
2026-05-06 20:56 55.35338 -4.48477 19360 ft 417 kts 75°
2026-05-06 20:56 55.36024 -4.43546 18874 ft 414 kts 76°
2026-05-06 20:56 55.36691 -4.38648 18385 ft 411 kts 76°
2026-05-06 20:56 55.37342 -4.33780 17847 ft 407 kts 76°
2026-05-06 20:57 55.37981 -4.28946 17344 ft 403 kts 76°
2026-05-06 20:57 55.38606 -4.24181 16863 ft 398 kts 77°
2026-05-06 20:57 55.39223 -4.19455 16389 ft 394 kts 77°
2026-05-06 20:57 55.39833 -4.14779 15916 ft 390 kts 77°
2026-05-06 20:58 55.40436 -4.10142 15448 ft 387 kts 77°
2026-05-06 20:58 55.41032 -4.05543 14975 ft 384 kts 77°
2026-05-06 20:58 55.41623 -4.00974 14531 ft 381 kts 77°
2026-05-06 20:58 55.42205 -3.96463 14131 ft 377 kts 77°
2026-05-06 20:59 55.42785 -3.91955 13827 ft 377 kts 77°
2026-05-06 20:59 55.43361 -3.87462 13543 ft 376 kts 77°
2026-05-06 20:59 55.43924 -3.83052 13284 ft 372 kts 77°
2026-05-06 20:59 55.44488 -3.78628 13025 ft 369 kts 77°
2026-05-06 21:00 55.45047 -3.74234 12744 ft 364 kts 78°
2026-05-06 21:00 55.45596 -3.69899 12342 ft 362 kts 78°
2026-05-06 21:00 55.46141 -3.65579 11881 ft 360 kts 78°
2026-05-06 21:00 55.46681 -3.61291 11422 ft 358 kts 78°
2026-05-06 21:01 55.47222 -3.57028 11047 ft 353 kts 77°
2026-05-06 21:01 55.48031 -3.53030 10922 ft 341 kts 63°
2026-05-06 21:01 55.49337 -3.49636 10798 ft 329 kts 46°
2026-05-06 21:01 55.51080 -3.47172 10663 ft 317 kts 27°
2026-05-06 21:02 55.53092 -3.45836 10532 ft 304 kts
2026-05-06 21:02 55.55158 -3.45651 10347 ft 294 kts 351°
2026-05-06 21:02 55.57109 -3.46519 10043 ft 287 kts 334°
2026-05-06 21:02 55.58812 -3.48298 9758 ft 283 kts 320°
2026-05-06 21:03 55.60326 -3.50492 9437 ft 280 kts 317°
2026-05-06 21:03 55.61800 -3.52728 9106 ft 278 kts 317°
2026-05-06 21:03 55.63268 -3.54947 8756 ft 278 kts 317°
2026-05-06 21:03 55.64742 -3.57158 8406 ft 277 kts 317°
2026-05-06 21:04 55.66200 -3.59375 8069 ft 273 kts 317°
2026-05-06 21:04 55.67595 -3.61508 7536 ft 266 kts 317°
2026-05-06 21:04 55.69006 -3.63663 6713 ft 269 kts 317°
2026-05-06 21:04 55.70424 -3.65800 6168 ft 262 kts 318°
2026-05-06 21:05 55.71773 -3.67816 5878 ft 245 kts 318°
2026-05-06 21:05 55.73036 -3.69703 5617 ft 230 kts 317°
2026-05-06 21:05 55.74226 -3.71482 5384 ft 217 kts 317°
2026-05-06 21:05 55.75352 -3.73170 5152 ft 207 kts 316°
2026-05-06 21:06 55.76500 -3.74647 4817 ft 204 kts 329°
2026-05-06 21:06 55.77827 -3.75502 4438 ft 204 kts 345°
2026-05-06 21:06 55.79214 -3.75971 4092 ft 201 kts 349°
2026-05-06 21:06 55.80607 -3.75983 3986 ft 203 kts 13°
2026-05-06 21:07 55.81843 -3.74842 4012 ft 199 kts 40°
2026-05-06 21:07 55.82764 -3.73080 4040 ft 197 kts 57°
2026-05-06 21:07 55.83498 -3.71016 4001 ft 199 kts 61°
2026-05-06 21:07 55.84213 -3.68916 4006 ft 199 kts 61°
2026-05-06 21:08 55.84932 -3.66814 3903 ft 198 kts 61°
2026-05-06 21:08 55.85656 -3.64730 3659 ft 197 kts 61°
2026-05-06 21:08 55.86368 -3.62648 3348 ft 196 kts 62°
2026-05-06 21:08 55.87073 -3.60569 3057 ft 196 kts 62°
2026-05-06 21:09 55.87777 -3.58502 2798 ft 194 kts 62°
2026-05-06 21:09 55.88475 -3.56449 2522 ft 193 kts 62°
2026-05-06 21:09 55.89167 -3.54417 2247 ft 190 kts 62°
2026-05-06 21:09 55.89825 -3.52486 1990 ft 174 kts 62°
2026-05-06 21:10 55.90428 -3.50712 1764 ft 160 kts 63°
2026-05-06 21:10 55.90982 -3.49080 1525 ft 147 kts 63°
2026-05-06 21:10 55.91490 -3.47584 1335 ft 137 kts 62°
2026-05-06 21:10 55.91981 -3.46134 1136 ft 136 kts 62°
2026-05-06 21:11 55.92469 -3.44697 951 ft 135 kts 62°
2026-05-06 21:11 55.92951 -3.43277 751 ft 133 kts 62°
2026-05-06 21:11 55.93428 -3.41874 573 ft 131 kts 62°
2026-05-06 21:11 55.93914 -3.40486 388 ft 132 kts 62°
2026-05-06 21:12 55.94380 -3.39091 220 ft 131 kts 63°
2026-05-06 21:12 55.94836 -3.37730 114 ft 115 kts 59°
2026-05-06 21:12 55.95156 -3.36799 113 ft 64 kts 57°
2026-05-06 21:12 55.95314 -3.36324 112 ft 37 kts 58°
2026-05-06 21:13 55.95439 -3.35947 112 ft 33 kts 60°
2026-05-06 21:13 55.95546 -3.35646 113 ft 20 kts 58°
2026-05-06 21:13 55.95549 -3.35494 115 ft 9 kts 136°
2026-05-06 21:13 55.95503 -3.35443 116 ft 7 kts 148°
2026-05-06 21:14 55.95457 -3.35408 117 ft 7 kts 176°
2026-05-06 21:14 55.95406 -3.35475 118 ft 12 kts 235°
2026-05-06 21:14 55.95357 -3.35622 115 ft 15 kts 239°
2026-05-06 21:14 55.95303 -3.35785 116 ft 16 kts 238°
2026-05-06 21:15 55.95262 -3.35906 116 ft 18 kts 240°
2026-05-06 21:15 55.95219 -3.35990 116 ft 6 kts 199°
2026-05-06 21:15 55.95186 -3.35969 115 ft 5 kts 147°
2026-05-06 21:15 55.95146 -3.35921 116 ft 8 kts 145°
2026-05-06 21:16 55.95108 -3.35832 116 ft 10 kts 124°
2026-05-06 21:16 55.95043 -3.35804 117 ft 11 kts 204°
2026-05-06 21:16 55.94992 -3.35854 116 ft 6 kts 213°
2026-05-06 21:16 55.94976 -3.35898 117 ft 4 kts 243°
2026-05-06 21:17 55.94965 -3.35950 118 ft 5 kts 254°
2026-05-06 21:17 55.94958 -3.35992 117 ft 1 kts 254°
2026-05-06 21:17 55.94957 -3.36000 117 ft 1 kts 254°
2026-05-06 21:17 55.94954 -3.36016 116 ft 0 kts 254°